Other Public Products
Issued by NWS Charleston, SC

Current Version | Previous Version | Text Only | Print | Product List | Glossary Off
Versions: 1 2 3 4 5 6 7 8 9 10 11 12 13 14 15 16 17 18 19 20 21 22 23 24 25 26 27 28 29 30 31 32 33 34 35 36 37 38 39 40 41 42 43 44 45 46 47 48 49 50

378
FPUS82 KCHS 251212
OPUCHS

TEST...KCHS/KSAV Gateway Observations...TEST
National Weather Service Charleston SC
800 AM EDT THU MAY 25 2017

NOTE: "fair" indicates few or no clouds below 12,000 feet with no
significant weather and/or obstructions to visibility.

SCZ050-WAZ558-NCZ071-TXZ119-213-PAZ071-DCZ001-FLZ074-172-MI076-
NYZ176-178-MAZ016-IL014-TNZ027-NJZ106-GAZ044-MD014-251300-

...Gateway Observations for Charleston International...

CITY           SKY/WX    TMP DP  RH WIND       PRES   REMARKS
Chas Airport   MOSUNNY   67  59  75 SW12G20   29.68R
6HR MIN TEMP:  65; 6HR MAX TEMP:  72;

Seattle        PTCLDY    47  44  90 SE7       29.92S
6HR MIN TEMP:  47; 6HR MAX TEMP:  57;

Charlotte      CLOUDY    60  56  86 S9        29.57R
6HR MIN TEMP:  58; 6HR MAX TEMP:  64; 6HR PCP:  0.01;

Dallas DFW     PTCLDY    61  53  75 SE9       29.70R
6HR MIN TEMP:  60; 6HR MAX TEMP:  65;

Dallas Love    CLEAR     63  51  65 SE14      29.72R
6HR MIN TEMP:  63; 6HR MAX TEMP:  68;

Philladelphia  RAIN      56  53  90 E15G24    29.59F FOG
6HR MIN TEMP:  55; 6HR MAX TEMP:  58; 6HR PCP:  0.54;

Wash National  LGT RAIN  60  59  96 NE8       29.46F FOG
6HR MIN TEMP:  58; 6HR MAX TEMP:  60; 6HR PCP:  0.45;

Baltimore      LGT RAIN  57  57 100 E15       29.49F FOG
6HR MIN TEMP:  56; 6HR MAX TEMP:  57; 6HR PCP:  0.36;

Miami          CLOUDY    82  76  81 S10       29.86R
6HR MIN TEMP:  77; 6HR MAX TEMP:  82;

Detroit        CLOUDY    58  58 100 NE7       29.46S FOG
6HR MIN TEMP:  58; 6HR MAX TEMP:  59; 6HR PCP:  0.08;

Newark         LGT RAIN  57  56  96 E10       29.67F
6HR MIN TEMP:  56; 6HR MAX TEMP:  58; 6HR PCP:  0.12;

Laguardia      LGT RAIN  57  55  93 NE13      29.69F
6HR MIN TEMP:  56; 6HR MAX TEMP:  59; 6HR PCP:  0.10;

J F K          LGT RAIN  57  56  96 E10       29.70F
6HR MIN TEMP:  56; 6HR MAX TEMP:  58; 6HR PCP:  0.25;

Boston Logan   CLOUDY    55  51  86 NE15      29.87F
6HR MIN TEMP:  53; 6HR MAX TEMP:  55; 6HR PCP: TRACE;

Ft. Lauderdale CLOUDY    80  77  90 SW10      29.85R
6HR MIN TEMP:  76; 6HR MAX TEMP:  80;

Chicago O`Hare CLOUDY    55  50  83 N13       29.58R
6HR MIN TEMP:  54; 6HR MAX TEMP:  56;

Chicago Midway CLOUDY    56  51  84 N14       29.57R
6HR MIN TEMP:  54; 6HR MAX TEMP:  56;

Houston Bush   CLEAR     62  59  90 S3        29.80R
6HR MIN TEMP:  60; 6HR MAX TEMP:  69;

Houston Hobby  CLEAR     67  62  84 SW5       29.79R
6HR MIN TEMP:  63; 6HR MAX TEMP:  67;

Nashville      CLOUDY    56  51  84 SW7       29.67R
6HR MIN TEMP:  54; 6HR MAX TEMP:  57;

Atlanta        PTSUNNY   57  54  89 W10       29.71R
6HR MIN TEMP:  56; 6HR MAX TEMP:  59; 6HR PCP:  0.02;


$$

GAZ044-118-TXZ119-213-NCZ071-DCZ001-MDZ014-506-PAZ021-071-NJZ106-
NYZ176-178-MAZ106-OHZ011-021-055-MIZ076-KYZ091-ILZ014-INZ047-
MNZ060-ONZ431-251300-

...Gateway Observations for Savannah International...

CITY           SKY/WX    TMP DP  RH WIND       PRES   REMARKS
Savannah Arpt  PTSUNNY   66  57  72 SW12      29.74R
6HR MIN TEMP:  63; 6HR MAX TEMP:  71;

Atlanta        PTSUNNY   57  54  89 W10       29.71R
6HR MIN TEMP:  56; 6HR MAX TEMP:  59; 6HR PCP:  0.02;

Charlotte      CLOUDY    60  56  86 S9        29.57R
6HR MIN TEMP:  58; 6HR MAX TEMP:  64; 6HR PCP:  0.01;

Dallas DFW     PTCLDY    61  53  75 SE9       29.70R
6HR MIN TEMP:  60; 6HR MAX TEMP:  65;

Houston Bush   CLEAR     62  59  90 S3        29.80R
6HR MIN TEMP:  60; 6HR MAX TEMP:  69;

Wash National  LGT RAIN  60  59  96 NE8       29.46F FOG
6HR MIN TEMP:  58; 6HR MAX TEMP:  60; 6HR PCP:  0.45;

Wash Dulles    CLOUDY    57  55  93 N10       29.47F FOG
6HR MIN TEMP:  56; 6HR MAX TEMP:  57; 6HR PCP:  0.54;

Baltimore      LGT RAIN  57  57 100 E15       29.49F FOG
6HR MIN TEMP:  56; 6HR MAX TEMP:  57; 6HR PCP:  0.36;

Philadelphia   RAIN      56  53  90 E15G24    29.59F FOG
6HR MIN TEMP:  55; 6HR MAX TEMP:  58; 6HR PCP:  0.54;

Newark         LGT RAIN  57  56  96 E10       29.67F
6HR MIN TEMP:  56; 6HR MAX TEMP:  58; 6HR PCP:  0.12;

Laguardia      LGT RAIN  57  55  93 NE13      29.69F
6HR MIN TEMP:  56; 6HR MAX TEMP:  59; 6HR PCP:  0.10;

J F K          LGT RAIN  57  56  96 E10       29.70F
6HR MIN TEMP:  56; 6HR MAX TEMP:  58; 6HR PCP:  0.25;

Boston         CLOUDY    55  51  86 NE15      29.87F
6HR MIN TEMP:  53; 6HR MAX TEMP:  55; 6HR PCP: TRACE;

Pittsburg      LGT RAIN  56  56 100 SE7       29.47R
6HR MIN TEMP:  56; 6HR MAX TEMP:  58; 6HR PCP:  0.35;

Akron          CLOUDY    59  55  87 SE7       29.45S
6HR MIN TEMP:  59; 6HR MAX TEMP:  60; 6HR PCP:  0.02;

Cleveland      LGT RAIN  62  58  86 E6        29.45S
6HR MIN TEMP:  62; 6HR MAX TEMP:  63; 6HR PCP: TRACE;

Cincinnati     RAIN      57  56  96 SW7       29.40R FOG
6HR MIN TEMP:  57; 6HR MAX TEMP:  59; 6HR PCP:  0.47;

Columbus       CLOUDY    57  56  97 S14G20    29.42R
Detroit        CLOUDY    58  58 100 NE7       29.46S FOG
6HR MIN TEMP:  58; 6HR MAX TEMP:  59; 6HR PCP:  0.08;

Chicago O`Hare CLOUDY    55  50  83 N13       29.58R
6HR MIN TEMP:  54; 6HR MAX TEMP:  56;

Minneapolis    SUNNY     52  48  86 SE6       29.72R
6HR MIN TEMP:  50; 6HR MAX TEMP:  55;

Indianapolis   DRIZZLE   55  54  96 NW18G25   29.46R FOG
6HR MIN TEMP:  55; 6HR MAX TEMP:  57; 6HR PCP:  0.21;

Toronto Canada LGT RAIN  55  54  94 E17G23    29.58S FOG

$$




USA.gov is the U.S. government's official web portal to all federal, state and local government web resources and services.